Weather History for Lewisburg, WV

Change the Weather History Date:

Tuesday, March 12, 2013

  Actual Average Record
Temperature  
Mean Temperature 39 °F 38 °F  
Max Temperature 48 °F 50 °F 76 °F (1990)
Min Temperature 30 °F 26 °F 12 °F (1998)
Degree Days  
Heating Degree Days 26    
Month to date heating degree days  
Cooling Degree Days 0    
Month to date cooling degree days  
Year to date cooling degree days  
Moisture  
Dew Point 31 °F    
Average Humidity 81    
Maximum Humidity 93    
Minimum Humidity 65    
Precipitation  
Precipitation 0.28 in 0.11 in 0.28 in (2013)
Month to date precipitation 1.25  
Year to date precipitation 7.28  
Snow  
Snow 0.00 in - - ()
Month to date snowfall  
Snow Depth -    
Sea Level Pressure  
Sea Level Pressure 29.90 in    
Wind  
Wind Speed 5 mph (WNW)    
Max Wind Speed 15 mph    
Max Gust Speed 21 mph    
Visibility 9 miles    
Events Rain    
T = Trace of Precipitation, MM = Missing Value Source: NWS Daily Summary

Daily Weather History Graph

Daily Weather History Graph

Search for Another Location

Airport:

Trip Planner

Search our weather history database for the weather conditions in past years. The results will help you decide how hot, cold, wet, or windy it might be!

Date:

Astronomy

Mar. 12, 2013 Rise Set
Actual Time 7:36 AM EDT 7:26 PM EDT
Civil Twilight 7:10 AM EDT 7:52 PM EDT
Nautical Twilight 6:40 AM EDT 8:22 PM EDT
Astronomical Twilight 6:09 AM EDT 8:53 PM EDT
Moon 7:44 AM EDT (3/12) 8:37 PM EDT (3/12)
Length of Visible Light 12h 41m
Length of Day
11h 49m
New Moon, 1% of the Moon is Illuminated
Mar 12
New Moon
Mar 19
First Quarter
Mar 27
Full
Apr 3
Last Quarter
Apr 10
New

Hourly Weather History & Observations

Time (EDT) Temp. Windchill Dew Point Humidity Pressure Visibility Wind Dir Wind Speed Gust Speed Precip Events Conditions
12:15 AM 46.4 °F 45.2 °F 42.8 °F 87% 29.84 in 10.0 mi SSE 3.5 mph - N/A   Overcast
12:35 AM 46.4 °F 45.2 °F 42.8 °F 87% 29.84 in 10.0 mi SW 3.5 mph - N/A   Overcast
12:55 AM 48.2 °F - 42.8 °F 82% 29.83 in 10.0 mi South 6.9 mph - N/A   Overcast
1:15 AM 48.2 °F - 42.8 °F 82% 29.82 in 10.0 mi South 4.6 mph - N/A   Overcast
1:35 AM 48.2 °F - 42.8 °F 82% 29.81 in 10.0 mi SW 4.6 mph - N/A   Overcast
1:55 AM 46.4 °F - 42.8 °F 87% 29.81 in 10.0 mi Calm Calm - N/A   Overcast
2:15 AM 46.4 °F 43.5 °F 42.8 °F 87% 29.82 in 10.0 mi SW 5.8 mph - N/A Rain Light Rain
2:35 AM 46.4 °F - 42.8 °F 87% 29.81 in 10.0 mi Calm Calm - N/A Rain Light Rain
2:55 AM 46.4 °F - 42.8 °F 87% 29.81 in 10.0 mi Calm Calm - N/A Rain Light Rain
3:15 AM 46.4 °F - 42.8 °F 87% 29.80 in 10.0 mi Calm Calm - N/A Rain Light Rain
3:35 AM 46.4 °F - 42.8 °F 87% 29.79 in 7.0 mi Calm Calm - 0.01 in Rain Light Rain
3:55 AM 44.6 °F - 42.8 °F 93% 29.79 in 7.0 mi Calm Calm - 0.02 in   Drizzle
4:15 AM 44.6 °F - 42.8 °F 93% 29.78 in 7.0 mi Calm Calm - 0.01 in Rain Rain
4:35 AM 44.6 °F - 42.8 °F 93% 29.77 in 4.0 mi Calm Calm - 0.05 in Rain Rain
4:55 AM 44.6 °F 43.1 °F 42.8 °F 93% 29.76 in 7.0 mi WNW 3.5 mph - 0.08 in Rain Light Rain
5:15 AM 42.8 °F 41.1 °F 41.0 °F 93% 29.76 in 7.0 mi NNW 3.5 mph - 0.04 in Rain Light Rain
5:35 AM 41.0 °F 39.0 °F 37.4 °F 87% 29.78 in 10.0 mi NW 3.5 mph - 0.05 in Rain Light Rain
5:55 AM 37.4 °F 34.9 °F 35.6 °F 93% 29.79 in 7.0 mi NW 3.5 mph - 0.07 in Rain Light Rain
6:15 AM 37.4 °F 32.8 °F 35.6 °F 93% 29.82 in 5.0 mi West 5.8 mph - 0.03 in Rain Rain
6:35 AM 35.6 °F 29.2 °F 32.0 °F 87% 29.83 in 5.0 mi West 8.1 mph 16.1 mph 0.06 in Rain Rain
6:55 AM 33.8 °F 27.7 °F 32.0 °F 93% 29.84 in 4.0 mi West 6.9 mph - 0.09 in Rain Light Rain
7:15 AM 33.8 °F 29.6 °F 32.0 °F 93% 29.84 in 5.0 mi West 4.6 mph - 0.02 in Rain Light Rain
7:35 AM 33.8 °F 26.4 °F 32.0 °F 93% 29.85 in 10.0 mi West 9.2 mph - 0.02 in   Overcast
7:55 AM 33.8 °F 29.6 °F 32.0 °F 93% 29.86 in 10.0 mi WNW 4.6 mph - 0.02 in   Overcast
8:15 AM 33.8 °F 27.0 °F 32.0 °F 93% 29.86 in 10.0 mi West 8.1 mph - N/A   Overcast
8:35 AM 33.8 °F 27.7 °F 32.0 °F 93% 29.88 in 10.0 mi West 6.9 mph - N/A   Light Drizzle
8:55 AM 33.8 °F 27.0 °F 32.0 °F 93% 29.89 in 10.0 mi West 8.1 mph - N/A   Overcast
9:15 AM 33.8 °F 25.8 °F 32.0 °F 93% 29.89 in 10.0 mi West 10.4 mph - N/A   Overcast
9:35 AM 33.8 °F 27.7 °F 30.2 °F 87% 29.91 in 10.0 mi WNW 6.9 mph - N/A   Overcast
9:55 AM 33.8 °F 27.7 °F 30.2 °F 87% 29.91 in 10.0 mi WNW 6.9 mph - N/A   Overcast
10:15 AM 33.8 °F 27.7 °F 30.2 °F 87% 29.91 in 10.0 mi WNW 6.9 mph - N/A   Overcast
10:35 AM 33.8 °F 27.0 °F 30.2 °F 87% 29.91 in 10.0 mi West 8.1 mph - N/A   Overcast
10:55 AM 33.8 °F 28.6 °F 30.2 °F 87% 29.91 in 10.0 mi West 5.8 mph - N/A   Overcast
11:15 AM 33.8 °F 26.4 °F 30.2 °F 87% 29.91 in 10.0 mi West 9.2 mph - N/A   Overcast
11:35 AM 33.8 °F 28.6 °F 30.2 °F 87% 29.91 in 10.0 mi West 5.8 mph - N/A   Overcast
11:55 AM 33.8 °F 25.8 °F 28.4 °F 81% 29.92 in 10.0 mi West 10.4 mph 18.4 mph N/A   Overcast
12:15 PM 33.8 °F 27.7 °F 28.4 °F 81% 29.93 in 10.0 mi West 6.9 mph - N/A   Overcast
12:35 PM 33.8 °F 27.7 °F 28.4 °F 81% 29.92 in 10.0 mi WNW 6.9 mph - N/A   Overcast
12:55 PM 33.8 °F 27.7 °F 28.4 °F 81% 29.91 in 10.0 mi NW 6.9 mph - N/A   Overcast
1:15 PM 33.8 °F 27.7 °F 26.6 °F 75% 29.91 in 10.0 mi WNW 6.9 mph - N/A   Overcast
1:35 PM 33.8 °F 27.0 °F 28.4 °F 81% 29.92 in 10.0 mi NW 8.1 mph - N/A   Overcast
1:55 PM 33.8 °F 24.8 °F 28.4 °F 81% 29.93 in 10.0 mi NW 12.7 mph 18.4 mph N/A   Overcast
2:15 PM 33.8 °F 25.8 °F 28.4 °F 81% 29.93 in 10.0 mi NW 10.4 mph 19.6 mph N/A   Overcast
2:35 PM 33.8 °F 25.8 °F 26.6 °F 75% 29.94 in 10.0 mi WNW 10.4 mph 18.4 mph N/A   Overcast
2:55 PM 33.8 °F 26.4 °F 26.6 °F 75% 29.93 in 10.0 mi NW 9.2 mph 19.6 mph N/A   Overcast
3:15 PM 33.8 °F 27.0 °F 26.6 °F 75% 29.91 in 10.0 mi NW 8.1 mph - N/A   Overcast
3:35 PM 35.6 °F 29.9 °F 26.6 °F 70% 29.91 in 10.0 mi NW 6.9 mph - N/A   Mostly Cloudy
3:55 PM 35.6 °F 28.6 °F 26.6 °F 70% 29.91 in 10.0 mi NW 9.2 mph - N/A   Scattered Clouds
4:15 PM 37.4 °F 31.4 °F 26.6 °F 65% 29.91 in 10.0 mi WNW 8.1 mph 16.1 mph N/A   Clear
4:35 PM 37.4 °F 31.4 °F 26.6 °F 65% 29.91 in 10.0 mi WNW 8.1 mph - N/A   Scattered Clouds
4:55 PM 37.4 °F 30.3 °F 26.6 °F 65% 29.91 in 10.0 mi NW 10.4 mph 16.1 mph N/A   Clear
5:15 PM 37.4 °F 28.5 °F 26.6 °F 65% 29.91 in 10.0 mi NW 15.0 mph 20.7 mph N/A   Scattered Clouds
5:35 PM 37.4 °F 29.8 °F 26.6 °F 65% 29.92 in 10.0 mi NW 11.5 mph 16.1 mph N/A   Scattered Clouds
5:55 PM 35.6 °F 28.6 °F 26.6 °F 70% 29.92 in 10.0 mi WNW 9.2 mph 16.1 mph N/A   Clear
6:15 PM 33.8 °F 26.4 °F 24.8 °F 70% 29.93 in 10.0 mi NW 9.2 mph - N/A   Clear
6:35 PM 33.8 °F 28.6 °F 24.8 °F 70% 29.94 in 10.0 mi NW 5.8 mph - N/A   Clear
6:55 PM 33.8 °F 27.0 °F 24.8 °F 70% 29.96 in 10.0 mi NW 8.1 mph - N/A   Scattered Clouds
7:15 PM 33.8 °F 27.0 °F 23.0 °F 65% 29.96 in 10.0 mi WNW 8.1 mph - N/A   Scattered Clouds
7:35 PM 32.0 °F 27.5 °F 23.0 °F 69% 29.97 in 10.0 mi NW 4.6 mph - N/A   Scattered Clouds
7:55 PM 32.0 °F 25.6 °F 23.0 °F 69% 29.97 in 10.0 mi WNW 6.9 mph - N/A   Scattered Clouds
8:15 PM 32.0 °F 24.8 °F 23.0 °F 69% 29.98 in 10.0 mi WNW 8.1 mph - N/A   Clear
8:35 PM 32.0 °F 27.5 °F 23.0 °F 69% 29.98 in 10.0 mi WNW 4.6 mph - N/A   Clear
8:55 PM 32.0 °F 28.7 °F 23.0 °F 69% 29.98 in 10.0 mi WNW 3.5 mph - N/A   Clear
9:15 PM 32.0 °F 28.7 °F 23.0 °F 69% 29.99 in 10.0 mi West 3.5 mph - N/A   Clear
9:35 PM 32.0 °F - 23.0 °F 69% 29.99 in 10.0 mi Calm Calm - N/A   Clear
9:55 PM 32.0 °F - 23.0 °F 69% 29.99 in 10.0 mi Calm Calm - N/A   Clear
10:15 PM 30.2 °F 26.7 °F 23.0 °F 75% 30.00 in 10.0 mi NNW 3.5 mph - N/A   Clear
10:35 PM 30.2 °F - 23.0 °F 75% 30.00 in 10.0 mi Calm Calm - N/A   Clear
10:55 PM 30.2 °F - 23.0 °F 75% 30.01 in 10.0 mi Calm Calm - N/A   Clear
11:15 PM 30.2 °F - 23.0 °F 75% 30.01 in 10.0 mi Calm Calm - N/A   Clear
11:35 PM 30.2 °F - 23.0 °F 75% 30.00 in 10.0 mi Calm Calm - N/A   Clear
11:55 PM 30.2 °F - 23.0 °F 75% 30.00 in 10.0 mi Calm Calm - N/A   Clear